Time,TemperatureF,DewpointF,PressureIn,WindDirection,WindDirectionDegrees,WindSpeedMPH,WindSpeedGustMPH,Humidity,HourlyPrecipIn,Conditions,Clouds,dailyrainin,SoftwareType,DateUTC
2013-12-14 00:18:00,38.3,35.6,29.87,SE,135,0.0,0.0,90,0.00,,,0.00,WUHU21623XXSP,2013-12-14 06:18:00,
2013-12-14 01:18:00,38.7,36.3,29.81,SE,135,10.3,10.3,91,0.00,,,0.00,WUHU21623XXSP,2013-12-14 07:18:00,
2013-12-14 03:18:00,40.6,38.7,29.82,SSE,158,0.0,0.0,93,0.00,,,0.00,WUHU21623XXSP,2013-12-14 09:18:00,
2013-12-14 04:18:00,41.2,39.6,29.80,South,180,0.0,0.0,94,0.00,,,0.00,WUHU21623XXSP,2013-12-14 10:18:00,
2013-12-14 05:18:00,41.5,39.9,29.79,ESE,113,0.0,0.0,94,0.00,,,0.00,WUHU21623XXSP,2013-12-14 11:18:00,
2013-12-14 06:18:00,41.9,40.0,29.81,SSE,158,0.0,0.0,93,0.00,,,0.00,WUHU21623XXSP,2013-12-14 12:18:00,
2013-12-14 07:18:00,43.5,42.4,29.83,WNW,293,0.0,0.0,96,0.00,,,0.00,WUHU21623XXSP,2013-12-14 13:18:00,
2013-12-14 08:18:00,43.7,42.6,29.85,NW,315,0.0,0.0,96,0.00,,,0.00,WUHU21623XXSP,2013-12-14 14:18:00,
2013-12-14 09:18:00,41.9,40.8,29.88,West,270,0.0,0.0,96,0.00,,,0.00,WUHU21623XXSP,2013-12-14 15:18:00,
2013-12-14 10:18:00,40.5,39.4,29.90,NW,315,0.0,0.0,96,0.00,,,0.00,WUHU21623XXSP,2013-12-14 16:18:00,
2013-12-14 11:18:00,40.5,39.4,29.89,NNW,338,0.0,0.0,96,0.00,,,0.00,WUHU21623XXSP,2013-12-14 17:18:00,
2013-12-14 12:18:00,40.5,38.0,29.89,NW,315,0.0,0.0,91,0.00,,,0.00,WUHU21623XXSP,2013-12-14 18:18:00,
2013-12-14 13:18:00,41.4,38.1,29.89,WNW,293,1.8,1.8,88,0.00,,,0.00,WUHU21623XXSP,2013-12-14 19:18:00,
2013-12-14 14:18:00,40.1,35.6,29.90,NW,315,0.0,0.0,84,0.00,,,0.00,WUHU21623XXSP,2013-12-14 20:18:00,
2013-12-14 15:18:00,39.4,34.7,29.93,NNW,338,0.0,0.0,83,0.00,,,0.00,WUHU21623XXSP,2013-12-14 21:18:00,
2013-12-14 16:18:00,38.7,33.1,29.97,NNW,338,6.5,6.5,80,0.00,,,0.00,WUHU21623XXSP,2013-12-14 22:18:00,
2013-12-14 17:18:00,38.5,32.9,30.00,NW,315,7.2,7.2,80,0.00,,,0.00,WUHU21623XXSP,2013-12-14 23:18:00,
2013-12-14 18:18:00,38.1,32.2,30.02,NNW,338,0.0,0.0,79,0.00,,,0.00,WUHU21623XXSP,2013-12-15 00:18:00,
2013-12-14 19:18:00,37.6,31.7,30.04,NW,315,0.0,0.0,79,0.00,,,0.00,WUHU21623XXSP,2013-12-15 01:18:00,
2013-12-14 20:18:00,37.0,30.8,30.06,NW,315,0.0,0.0,78,0.00,,,0.00,WUHU21623XXSP,2013-12-15 02:18:00,
2013-12-14 21:18:00,36.3,29.8,30.09,NW,315,2.9,2.9,77,0.00,,,0.00,WUHU21623XXSP,2013-12-15 03:18:00,
2013-12-14 22:18:00,35.6,29.1,30.10,NW,315,0.0,0.0,77,0.00,,,0.00,WUHU21623XXSP,2013-12-15 04:18:00,
2013-12-14 23:18:00,34.7,27.9,30.11,NNW,338,1.6,1.6,76,0.00,,,0.00,WUHU21623XXSP,2013-12-15 05:18:00,